Showing default

SECOR 8 (EGRS 8), 2520

Orbit data source: Space-Track

SECOR 8 (EGRS 8), 2520 is an American payload satellite in LEO that was launched on Wed, 05 Oct 1966 UTC via an ATLAS SLV-3 AGENA D launch vehicle from the Air Force Western Test Range (AFWTR). Payload-class satellites include a variety of spacecraft equipped with specific instruments for various scientific and technological missions. These include communications satellites like Starlink; space stations such as the ISS; scientific satellites like the Hubble; Earth observation satellites from companies like Planet Labs, Umbra, and HawkEye 360; GPS; miniature CubeSats for education and research; and military/defense satellites.

Loading next visibility...
Identifier
2520, 1966-089B
Orbit
LEO
Country
Flag of USUS
Related business
Manufacturer
ITT
Mission
Spacecraft
Bus & Motor
SECOR, Unknown motor
Mass
18 kg wet, 18 kg dry
Launch date (UTC)
1966-10-05 (60 years ago)
Launch vehicle
ATLAS SLV-3 AGENA D
Launch site
Air Force Western Test Range (AFWTR)
Object type
Payload
Rocket body
Debris
Shape & HBR
Unknown
Radar Cross Section
Medium (>0.1 m² and <1 m²)

Expand to show TLE details & history
Last TLE update: 22 hours ago

TLE from 22 hours ago
0 SECOR 8 (EGRS 8)
1  2520U 66089B   26106.21457505  .00000008  00000-0  32366-2 0  9992
2  2520  89.8516  31.8090 0015080  13.1200 347.0041  8.58894244376636
Epoch: 2026-04-16T05:08Z
TLE epoch observation values (Epoch: 2026-04-16T05:08:59.284Z)
Latitude
-0.00001°
Longitude
110.19666°
Altitude
3,681.086 km
Speed
6.3 km/s
True Right ascension
02h 07m 14s
True Declination
0° 00' 00"
Sunlit
Object was in daylight at epoch
Visualization orbit readout
Latitude
Unknown
Longitude
Unknown
Altitude
Unknown
Speed
Unknown
Apparent Right ascension
Unknown
Apparent Declination
Unknown
Sunlit
N/A
Visualization observer readout
Local Sidereal Time
09:50:42
Azimuth
Unknown
Elevation
Unknown
Doppler factor
Unknown
Orbital elements
Apogee altitude
3,706.706 km
Perigee altitude
3,676.336 km
Semi-major axis
10,069.658 km
Eccentricity
0.00151
Inclination
89.8516°
RAAN
31.809°
Arg. of periapsis
13.12°
True anomaly
346.96517°
Mean anomaly
347.0041°
Eccentric anomaly
346.98464°
Mean motion
2.14793 °/min
Orbital period
167.6 mins
BSTAR
0.0032366
Loading maneuver chart data...
Computing Atmospheric mass density...
Loading historical data...
Loading historical data...
Loading historical data...
Loading historical data...
Loading historical data...
Loading historical data...
Loading historical data...
Other satellites on launch #89 in the year 1966 (1966-10-05 UTC)

Documentation

Showing up to 5 results
|